Latest Weather Observations for Adelaide Airport

IDS60901

Issued at 1:35 pm CDT Sunday 26 October 2014 (issued every 10 minutes, with the page automatically refreshed every 10 minutes)

About weather observations | Map of Adelaide area stations | Latest observations for Adelaide area | Other Formats
Station Details ID: 023034 Name: ADELAIDE AIRPORT Lat: -34.95 Lon: 138.52 Height: 2.0 m
Data from the previous 72 hours. | See also: Recent months at Adelaide Airport
Date/Time
CDT
Tmp

°C
App
Tmp
°C
Dew
Point
°C
Rel
Hum
%
Delta-T

°C
Wind Press
QNH
hPa
Press
MSL
hPa
Rain
since
9 am
mm
Dir
 
Spd
km/h
Gust
km/h
Spd
kts
Gust
kts
26/01:30pm 26.0 22.5 12.3 42 7.9 N 22 32 12 17 1010.0 - 0.0
26/01:00pm 26.5 23.5 11.9 40 8.4 N 19 28 10 15 1010.3 - 0.0
26/12:30pm 26.1 21.7 11.8 41 8.2 N 26 35 14 19 1010.6 - 0.0
26/12:22pm 26.2 21.4 11.7 40 8.3 N 28 48 15 26 1010.7 - 0.0
26/12:00pm 25.9 22.9 12.4 43 7.8 N 20 30 11 16 1010.8 1010.8 0.0
26/11:30am 24.8 20.3 11.3 42 7.6 N 26 35 14 19 1010.1 - 0.0
26/11:00am 23.3 18.8 12.7 51 6.1 ENE 28 35 15 19 1009.5 - 0.0
26/10:30am 20.4 15.4 13.4 64 4.0 NNE 32 41 17 22 1010.8 - 0.0
26/10:20am 19.9 14.8 13.6 67 3.6 NNE 33 37 18 20 1011.4 - 0.0
26/10:00am 21.3 19.7 11.6 54 5.4 N 11 15 6 8 1013.5 - 0.0
26/09:30am 20.6 18.3 11.6 56 5.0 ENE 15 19 8 10 1011.4 - 0.0
26/09:00am 18.4 16.5 11.9 66 3.6 ENE 13 17 7 9 1012.6 1012.6 0.0
26/08:30am 17.0 13.4 11.7 71 2.9 NE 22 28 12 15 1013.4 - 0.0
26/08:00am 16.1 13.7 12.7 80 1.9 E 17 20 9 11 1014.3 - 0.0
26/07:30am 16.6 16.1 13.8 83 1.6 SE 9 15 5 8 1015.5 - 0.0
26/07:00am 17.0 13.7 12.7 76 2.4 W 22 35 12 19 1015.7 - 0.0
26/06:47am 14.7 13.6 10.7 77 2.1 ESE 7 24 4 13 1016.3 - 0.0
26/06:30am 14.1 13.1 10.9 81 1.7 SE 7 7 4 4 1012.7 - 0.0
26/06:00am 13.4 13.6 10.5 82 1.5 CALM 0 0 0 0 1012.8 1012.8 0.0
26/05:30am 13.7 13.9 10.6 81 1.6 CALM 0 0 0 0 1012.2 - 0.0
26/05:00am 14.0 14.2 10.6 80 1.8 CALM 0 6 0 3 1012.3 - 0.0
26/04:30am 13.8 12.6 10.3 79 1.8 E 7 7 4 4 1012.1 - 0.0
26/04:00am 13.6 13.1 10.7 82 1.5 E 4 9 2 5 1012.5 - 0.0
26/03:30am 13.2 12.3 10.7 85 1.3 ENE 6 7 3 4 1012.9 - 0.0
26/03:00am 13.2 11.2 10.3 82 1.5 NE 11 11 6 6 1012.7 1012.7 0.0
26/02:30am 13.2 11.5 9.9 80 1.7 NE 9 9 5 5 1013.0 - 0.0
26/02:00am 13.5 12.4 10.6 82 1.5 ESE 7 9 4 5 1013.4 - 0.0
26/01:30am 13.3 12.2 10.6 84 1.4 E 7 7 4 4 1013.6 - 0.0
26/01:00am 13.9 13.9 11.3 84 1.4 NW 2 7 1 4 1014.0 - 0.0
26/12:30am 14.4 13.3 11.8 84 1.4 NNE 9 9 5 5 1014.5 - 0.0
 
Date/Time
CDT
Tmp

°C
App
Tmp
°C
Dew
Point
°C
Rel
Hum
%
Delta-T

°C
Wind Press
QNH
hPa
Press
MSL
hPa
Rain
since
9 am
mm
Dir
 
Spd
km/h
Gust
km/h
Spd
kts
Gust
kts
25/11:30pm 14.6 13.6 12.4 87 1.2 E 9 9 5 5 1014.6 - 0.0
25/11:00pm 15.1 16.1 13.3 89 1.0 CALM 0 0 0 0 1015.2 - 0.0
25/10:30pm 14.7 15.7 13.3 91 0.8 CALM 0 0 0 0 1015.5 - 0.0
25/10:00pm 15.9 17.1 13.8 87 1.2 CALM 0 0 0 0 1016.0 - 0.0
25/09:30pm 15.9 17.0 13.4 85 1.4 CALM 0 0 0 0 1016.1 - 0.0
25/09:00pm 16.8 17.0 14.2 85 1.5 W 6 7 3 4 1015.8 1015.8 0.0
25/08:30pm 17.0 17.2 14.2 83 1.6 W 6 7 3 4 1015.8 - 0.0
25/08:00pm 17.1 17.0 13.9 81 1.8 SW 7 9 4 5 1015.5 - 0.0
25/07:30pm 17.7 17.0 14.2 80 2.0 WSW 11 13 6 7 1015.6 - 0.0
25/07:00pm 18.4 16.8 14.0 75 2.5 WSW 15 17 8 9 1015.5 - 0.0
25/06:30pm 18.9 17.6 13.8 72 2.9 SW 13 15 7 8 1015.2 - 0.0
25/06:00pm 18.9 17.2 13.6 71 3.0 SW 15 19 8 10 1015.2 1015.2 0.0
25/05:30pm 18.7 16.1 13.2 70 3.1 WSW 19 22 10 12 1015.3 - 0.0
25/05:00pm 19.0 16.5 13.4 70 3.2 WSW 19 26 10 14 1015.4 - 0.0
25/04:30pm 19.1 16.3 13.3 69 3.3 WSW 20 26 11 14 1015.6 - 0.0
25/04:00pm 19.1 16.5 13.1 68 3.4 SW 19 26 10 14 1015.4 - 0.0
25/03:30pm 19.2 15.5 12.6 65 3.7 SW 24 32 13 17 1015.7 - 0.0
25/03:00pm 19.8 16.2 13.1 65 3.8 WSW 24 32 13 17 1016.1 1016.1 0.0
25/02:30pm 18.7 15.6 13.4 71 3.0 WSW 22 30 12 16 1016.2 - 0.0
25/02:00pm 19.0 16.0 13.6 71 3.1 WSW 22 28 12 15 1016.1 - 0.0
25/01:30pm 19.3 16.0 13.9 71 3.1 SW 24 30 13 16 1016.1 - 0.0
25/01:00pm 20.1 16.2 13.2 64 3.9 WSW 26 30 14 16 1016.2 - 0.0
25/12:30pm 19.6 15.6 14.0 70 3.2 WSW 28 32 15 17 1016.4 - 0.0
25/12:00pm 20.7 17.9 12.7 60 4.5 W 19 24 10 13 1016.3 1016.3 0.0
25/11:30am 19.9 17.0 12.4 62 4.2 W 19 24 10 13 1016.5 - 0.0
25/11:00am 21.3 19.2 13.5 61 4.5 W 17 20 9 11 1016.8 - 0.0
25/10:30am 20.8 19.7 13.1 61 4.4 WNW 11 17 6 9 1017.0 - 0.0
25/10:00am 20.6 19.7 13.6 64 4.0 NW 11 15 6 8 1017.1 - 0.0
25/09:30am 20.0 19.4 14.5 70 3.2 NNW 11 17 6 9 1017.2 - 0.0
25/09:00am 19.8 19.2 13.5 67 3.6 NNW 9 15 5 8 1017.3 1017.3 0.0
25/08:30am 18.8 17.8 13.3 70 3.1 N 11 15 6 8 1017.2 - 0.0
25/08:00am 18.1 16.1 12.7 70 3.0 NNE 15 17 8 9 1016.8 - 0.0
25/07:30am 17.0 15.2 13.3 79 2.1 NNE 15 19 8 10 1016.5 - 0.0
25/07:00am 14.8 13.7 12.0 83 1.5 N 9 11 5 6 1016.3 - 0.0
25/06:30am 16.1 15.1 12.3 78 2.1 WNW 9 11 5 6 1015.8 - 0.0
25/06:00am 16.2 15.4 12.8 80 1.9 NW 9 11 5 6 1015.2 1015.2 0.0
25/05:30am 15.9 15.4 12.8 82 1.7 WSW 7 11 4 6 1014.8 - 0.0
25/05:00am 15.5 14.7 11.8 78 2.0 SW 7 11 4 6 1014.3 - 0.0
25/04:30am 14.8 14.1 11.4 80 1.8 SSE 6 7 3 4 1014.0 - 0.0
25/04:00am 14.8 15.2 11.4 80 1.8 CALM 0 0 0 0 1014.3 - 0.0
25/03:30am 15.2 15.8 11.9 81 1.8 CALM 0 0 0 0 1014.4 - 0.0
25/03:00am 16.0 15.2 11.8 76 2.3 S 7 7 4 4 1014.4 1014.4 0.0
25/02:30am 16.0 14.9 11.8 76 2.3 SSE 9 9 5 5 1014.3 - 0.0
25/02:00am 17.0 16.3 12.1 73 2.7 S 7 9 4 5 1014.5 - 0.0
25/01:30am 17.4 16.3 11.9 70 3.0 SE 9 11 5 6 1014.5 - 0.0
25/01:00am 17.7 16.6 11.9 69 3.2 ESE 9 11 5 6 1014.5 - 0.0
25/12:30am 17.8 16.0 12.2 70 3.1 SSE 13 13 7 7 1014.6 - 0.0
25/12:00am 18.4 17.0 12.3 67 3.4 SSE 11 13 6 7 1014.4 1014.4 0.0
 
Date/Time
CDT
Tmp

°C
App
Tmp
°C
Dew
Point
°C
Rel
Hum
%
Delta-T

°C
Wind Press
QNH
hPa
Press
MSL
hPa
Rain
since
9 am
mm
Dir
 
Spd
km/h
Gust
km/h
Spd
kts
Gust
kts
24/11:30pm 18.7 16.9 12.2 66 3.6 S 13 19 7 10 1014.1 - 0.0
24/11:00pm 19.2 17.4 12.2 64 3.9 S 13 15 7 8 1014.2 - 0.0
24/10:30pm 20.1 19.1 13.3 65 3.9 SW 11 13 6 7 1014.2 - 0.0
24/10:00pm 20.9 20.3 12.4 58 4.8 S 7 9 4 5 1014.1 - 0.0
24/09:30pm 22.1 20.3 12.2 53 5.6 SSE 13 15 7 8 1013.8 - 0.0
24/09:00pm 22.1 19.8 11.7 51 5.8 SSW 15 19 8 10 1013.7 1013.7 0.0
24/08:30pm 20.4 18.8 13.8 66 3.8 SSW 15 22 8 12 1013.1 - 0.0
24/08:00pm 20.1 18.1 13.8 67 3.6 SW 17 20 9 11 1012.9 - 0.0
24/07:30pm 20.2 17.5 14.7 70 3.2 SW 22 30 12 16 1012.9 - 0.0
24/07:00pm 21.9 18.9 12.1 53 5.5 WSW 19 30 10 16 1012.7 - 0.0
24/06:30pm 23.3 21.1 10.9 45 6.9 SSW 13 17 7 9 1012.6 - 0.0
24/06:00pm 23.0 19.5 13.3 54 5.6 SW 24 33 13 18 1012.8 1012.8 0.0
24/05:30pm 24.4 19.7 12.1 46 7.0 SSW 28 37 15 20 1012.5 - 0.0
24/05:00pm 25.7 19.7 10.2 37 8.6 SW 32 37 17 20 1012.2 - 0.0
24/04:30pm 26.4 21.6 10.3 36 9.0 SW 26 33 14 18 1012.2 - 0.0
24/04:00pm 28.5 23.9 1.5 17 13.1 WSW 15 22 8 12 1012.2 - 0.0
24/03:30pm 29.1 25.5 0.5 15 13.7 S 9 15 5 8 1012.4 - 0.0
24/03:00pm 28.6 24.5 -0.3 15 13.6 SSW 11 17 6 9 1012.8 1012.8 0.0
24/02:30pm 29.1 24.3 0.5 15 13.7 WSW 15 20 8 11 1013.2 - 0.0
24/02:00pm 28.4 24.6 1.7 18 13.0 SW 11 17 6 9 1013.4 - 0.0
24/01:30pm 28.0 24.9 7.2 27 11.1 W 13 19 7 10 1013.8 - 0.0
24/01:00pm 27.3 24.8 8.3 30 10.3 W 11 17 6 9 1014.0 - 0.0
24/12:30pm 26.8 24.3 9.6 34 9.5 W 13 19 7 10 1014.1 - 0.0
24/12:00pm 26.2 23.7 8.4 32 9.6 WNW 11 17 6 9 1014.4 1014.4 0.0
24/11:30am 26.0 24.4 8.6 33 9.4 NW 7 13 4 7 1014.9 - 0.0
24/11:00am 25.7 24.0 9.7 36 8.8 N 9 13 5 7 1015.0 - 0.0
24/10:30am 25.2 24.4 11.6 42 7.7 NE 7 9 4 5 1015.1 - 0.0
24/10:00am 24.1 22.9 11.7 45 7.0 N 9 13 5 7 1015.1 - 0.0
24/09:30am 21.8 20.1 11.1 50 5.9 NE 11 13 6 7 1014.8 - 0.0
24/09:00am 21.4 20.2 11.5 53 5.5 NE 9 13 5 7 1014.8 1014.8 0.0
24/08:30am 20.2 19.7 11.9 59 4.6 NNE 6 9 3 5 1014.8 - 0.0
24/08:00am 18.1 18.2 12.7 70 3.0 ENE 4 9 2 5 1014.3 - 0.0
24/07:30am 15.9 16.8 12.8 82 1.7 CALM 0 0 0 0 1014.3 - 0.0
24/07:00am 14.2 13.5 12.0 87 1.2 NE 7 9 4 5 1014.0 - 0.0
24/06:30am 14.5 14.0 12.5 88 1.1 N 7 11 4 6 1013.5 - 0.0
24/06:00am 13.9 12.9 12.4 91 0.8 NNE 9 11 5 6 1013.0 1013.0 0.0
24/05:30am 14.7 13.5 12.7 88 1.1 NNE 11 13 6 7 1012.7 - 0.0
24/05:00am 14.1 12.4 12.6 91 0.8 NNE 13 15 7 8 1012.3 - 0.0
24/04:30am 13.5 12.9 12.4 93 0.6 ENE 7 9 4 5 1012.5 - 0.0
24/04:00am 13.4 12.3 12.1 92 0.7 NNE 9 9 5 5 1012.7 - 0.0
24/03:30am 14.4 12.5 12.9 91 0.8 NNW 15 15 8 8 1013.1 - 0.0
24/03:00am 13.0 11.9 11.9 93 0.6 ENE 9 13 5 7 1012.6 1012.6 0.0
24/02:30am 12.9 12.0 12.5 97 0.2 NNE 9 9 5 5 1013.6 - 0.0
24/02:00am 13.0 12.3 12.1 94 0.5 NNE 7 9 4 5 1014.1 - 0.0
24/01:30am 13.9 13.4 12.8 93 0.6 WNW 7 7 4 4 1014.5 - 0.0
24/01:00am 13.9 14.8 12.8 93 0.6 CALM 0 0 0 0 1014.8 - 0.0
24/12:30am 13.8 13.5 12.7 93 0.6 E 6 7 3 4 1015.1 - 0.0
24/12:00am 14.7 15.7 13.3 91 0.8 CALM 0 7 0 4 1015.5 1015.5 0.0
 
Date/Time
CDT
Tmp

°C
App
Tmp
°C
Dew
Point
°C
Rel
Hum
%
Delta-T

°C
Wind Press
QNH
hPa
Press
MSL
hPa
Rain
since
9 am
mm
Dir
 
Spd
km/h
Gust
km/h
Spd
kts
Gust
kts
23/11:30pm 15.4 15.1 14.3 93 0.6 W 9 9 5 5 1015.8 - 0.0
23/11:00pm 15.5 15.4 13.9 90 0.9 NNW 7 11 4 6 1015.6 - 0.0
23/10:30pm 14.9 16.1 13.8 93 0.6 CALM 0 6 0 3 1015.5 - 0.0
23/10:00pm 16.2 17.6 14.4 89 1.0 CALM 0 0 0 0 1015.8 - 0.0
23/09:30pm 16.0 15.6 14.2 89 1.0 WSW 9 11 5 6 1015.6 - 0.0
23/09:00pm 16.0 15.6 14.1 88 1.1 W 9 11 5 6 1015.4 1015.4 0.0
23/08:30pm 16.4 15.9 13.9 85 1.4 W 9 9 5 5 1015.2 - 0.0
23/08:00pm 16.7 16.7 13.7 82 1.7 WSW 6 7 3 4 1014.9 - 0.0
23/07:30pm 17.4 16.4 13.3 77 2.3 SW 11 15 6 8 1015.1 - 0.0
23/07:00pm 17.8 16.3 13.2 74 2.6 SW 13 17 7 9 1015.0 - 0.0
23/06:30pm 17.9 16.4 13.1 73 2.7 SW 13 17 7 9 1014.6 - 0.0
23/06:00pm 17.7 15.9 13.3 75 2.5 SSW 15 19 8 10 1014.4 1014.4 0.0
23/05:30pm 18.5 15.0 13.4 72 2.9 SW 24 30 13 16 1014.4 - 0.0
23/05:00pm 18.5 15.5 13.6 73 2.8 SW 22 28 12 15 1014.5 - 0.0
23/04:30pm 18.3 14.4 13.3 72 2.8 SW 26 32 14 17 1014.4 - 0.0
23/04:00pm 18.9 15.6 12.8 67 3.4 SW 22 28 12 15 1014.5 - 0.0
23/03:30pm 19.2 15.8 12.6 65 3.7 SW 22 35 12 19 1014.5 - 0.0
23/03:00pm 18.5 15.5 12.6 68 3.3 SW 20 26 11 14 1014.7 1014.7 0.0
23/02:30pm 18.9 16.0 12.4 66 3.6 WSW 19 22 10 12 1015.1 - 0.0
23/02:00pm 18.7 15.0 12.6 67 3.4 WSW 24 30 13 16 1015.5 - 0.0

Latest Capital City Observations: Canberra | Sydney | Melbourne | Brisbane | Adelaide | Perth | Hobart | Darwin

Other Formats:

Comma delimited format used in spreadsheet applications
http://www.bom.gov.au/fwo/IDS60901/IDS60901.94672.axf

JavaScript Object Notation format (JSON) in row-major order
http://www.bom.gov.au/fwo/IDS60901/IDS60901.94672.json